Time,TemperatureF,DewpointF,PressureIn,WindDirection,WindDirectionDegrees,WindSpeedMPH,WindSpeedGustMPH,Humidity,HourlyPrecipIn,Conditions,Clouds,dailyrainin,SolarRadiationWatts/m^2,SoftwareType,DateUTC
2013-04-01 00:03:00,55.0,50.0,-100.00,NNW,347,11.0,20.0,83,0.00,,,0.03,0.000000,,2013-04-01 10:03:00,
2013-04-01 00:12:00,55.0,50.0,-100.00,NNW,347,11.0,20.0,83,0.00,,,0.03,0.000000,,2013-04-01 10:12:00,
2013-04-01 00:22:00,55.0,50.0,-100.00,NNW,347,11.0,20.0,83,0.00,,,0.03,0.000000,,2013-04-01 10:22:00,
2013-04-01 00:33:00,55.0,50.0,-100.00,NNW,347,11.0,20.0,83,0.00,,,0.03,0.000000,,2013-04-01 10:33:00,
2013-04-01 01:02:00,53.0,48.0,-100.00,North,2,11.0,23.0,82,0.00,,,0.02,0.000000,,2013-04-01 11:02:00,
2013-04-01 01:12:00,53.0,48.0,-100.00,North,2,11.0,23.0,82,0.00,,,0.02,0.000000,,2013-04-01 11:12:00,
2013-04-01 01:22:00,53.0,48.0,-100.00,North,2,11.0,23.0,82,0.00,,,0.02,0.000000,,2013-04-01 11:22:00,
2013-04-01 01:32:00,53.0,48.0,-100.00,North,2,11.0,23.0,82,0.00,,,0.02,0.000000,,2013-04-01 11:32:00,
2013-04-01 02:02:00,53.0,48.0,-100.00,NNW,347,8.0,25.0,83,0.00,,,0.00,0.000000,,2013-04-01 12:02:00,
2013-04-01 02:12:00,53.0,48.0,-100.00,NNW,347,8.0,25.0,83,0.00,,,0.00,0.000000,,2013-04-01 12:12:00,
2013-04-01 02:22:00,53.0,48.0,-100.00,NNW,347,8.0,25.0,83,0.00,,,0.00,0.000000,,2013-04-01 12:22:00,
2013-04-01 02:32:00,53.0,48.0,-100.00,NNW,347,8.0,25.0,83,0.00,,,0.00,0.000000,,2013-04-01 12:32:00,
2013-04-01 03:02:00,54.0,49.0,-100.00,NNW,342,8.0,21.0,84,0.00,,,0.00,0.000000,,2013-04-01 13:02:00,
2013-04-01 03:12:00,54.0,49.0,-100.00,NNW,342,8.0,21.0,84,0.00,,,0.00,0.000000,,2013-04-01 13:12:00,
2013-04-01 03:22:00,54.0,49.0,-100.00,NNW,342,8.0,21.0,84,0.00,,,0.00,0.000000,,2013-04-01 13:22:00,
2013-04-01 03:32:00,54.0,49.0,-100.00,NNW,342,8.0,21.0,84,0.00,,,0.00,0.000000,,2013-04-01 13:32:00,
2013-04-01 04:03:00,53.0,49.0,-100.00,NNW,345,7.0,20.0,87,0.00,,,0.00,0.000000,,2013-04-01 14:03:00,
2013-04-01 04:12:00,53.0,49.0,-100.00,NNW,345,7.0,20.0,87,0.00,,,0.00,0.000000,,2013-04-01 14:12:00,
2013-04-01 04:22:00,53.0,49.0,-100.00,NNW,345,7.0,20.0,87,0.00,,,0.00,0.000000,,2013-04-01 14:22:00,
2013-04-01 04:32:00,53.0,49.0,-100.00,NNW,345,7.0,20.0,87,0.00,,,0.00,0.000000,,2013-04-01 14:32:00,
2013-04-01 05:02:00,53.0,49.0,-100.00,NNW,340,9.0,16.0,87,0.00,,,0.00,0.000000,,2013-04-01 15:02:00,
2013-04-01 05:12:00,53.0,49.0,-100.00,NNW,340,9.0,16.0,87,0.00,,,0.00,0.000000,,2013-04-01 15:12:00,
2013-04-01 05:22:00,53.0,49.0,-100.00,NNW,340,9.0,16.0,87,0.00,,,0.00,0.000000,,2013-04-01 15:22:00,
2013-04-01 05:33:00,53.0,49.0,-100.00,NNW,340,9.0,16.0,87,0.00,,,0.00,0.000000,,2013-04-01 15:33:00,
2013-04-01 06:02:00,55.0,51.0,-100.00,NNW,346,6.0,17.0,86,0.00,,,0.00,0.000000,,2013-04-01 16:02:00,
2013-04-01 06:12:00,55.0,51.0,-100.00,NNW,346,6.0,17.0,86,0.00,,,0.00,0.000000,,2013-04-01 16:12:00,
2013-04-01 06:22:00,55.0,51.0,-100.00,NNW,346,6.0,17.0,86,0.00,,,0.00,0.000000,,2013-04-01 16:22:00,
2013-04-01 06:32:00,55.0,51.0,-100.00,NNW,346,6.0,17.0,86,0.00,,,0.00,0.000000,,2013-04-01 16:32:00,
2013-04-01 08:02:00,56.0,53.0,-100.00,North,355,9.0,18.0,89,-99.99,,,0.00,47.000000,,2013-04-01 18:02:00,
2013-04-01 08:12:00,56.0,53.0,-100.00,North,355,9.0,18.0,89,-99.99,,,0.00,47.000000,,2013-04-01 18:12:00,
2013-04-01 08:22:00,56.0,53.0,-100.00,North,355,9.0,18.0,89,-99.99,,,0.00,47.000000,,2013-04-01 18:22:00,
2013-04-01 08:32:00,56.0,53.0,-100.00,North,355,9.0,18.0,89,-99.99,,,0.00,47.000000,,2013-04-01 18:32:00,
2013-04-01 09:03:00,57.0,53.0,-100.00,North,357,8.0,19.0,85,0.00,,,0.00,305.000000,,2013-04-01 19:03:00,
2013-04-01 09:12:00,57.0,53.0,-100.00,North,357,8.0,19.0,85,0.00,,,0.00,305.000000,,2013-04-01 19:12:00,
2013-04-01 09:22:00,57.0,53.0,-100.00,North,357,8.0,19.0,85,0.00,,,0.00,305.000000,,2013-04-01 19:22:00,
2013-04-01 09:32:00,57.0,53.0,-100.00,North,357,8.0,19.0,85,0.00,,,0.00,305.000000,,2013-04-01 19:32:00,
2013-04-01 10:02:00,62.0,50.0,-100.00,NNW,342,5.0,19.0,65,0.00,,,0.00,717.000000,,2013-04-01 20:02:00,
2013-04-01 10:12:00,62.0,50.0,-100.00,NNW,342,5.0,19.0,65,0.00,,,0.00,717.000000,,2013-04-01 20:12:00,
2013-04-01 10:22:00,62.0,50.0,-100.00,NNW,342,5.0,19.0,65,0.00,,,0.00,717.000000,,2013-04-01 20:22:00,
2013-04-01 10:32:00,62.0,50.0,-100.00,NNW,342,5.0,19.0,65,0.00,,,0.00,717.000000,,2013-04-01 20:32:00,
2013-04-01 11:02:00,65.0,53.0,-100.00,North,4,4.0,16.0,64,0.00,,,0.00,1067.000000,,2013-04-01 21:02:00,
2013-04-01 11:11:00,65.0,53.0,-100.00,North,4,4.0,16.0,64,0.00,,,0.00,1067.000000,,2013-04-01 21:11:00,
2013-04-01 11:22:00,65.0,53.0,-100.00,North,4,4.0,16.0,64,0.00,,,0.00,1067.000000,,2013-04-01 21:22:00,
2013-04-01 11:32:00,65.0,53.0,-100.00,North,4,4.0,16.0,64,0.00,,,0.00,1067.000000,,2013-04-01 21:32:00,
2013-04-01 12:02:00,61.0,52.0,-100.00,North,4,7.0,11.0,72,0.00,,,-99.99,997.000000,,2013-04-01 22:02:00,
2013-04-01 12:12:00,61.0,52.0,-100.00,North,4,7.0,11.0,72,0.00,,,-99.99,997.000000,,2013-04-01 22:12:00,
2013-04-01 12:22:00,61.0,52.0,-100.00,North,4,7.0,11.0,72,0.00,,,-99.99,997.000000,,2013-04-01 22:22:00,
2013-04-01 12:32:00,61.0,52.0,-100.00,North,4,7.0,11.0,72,0.00,,,-99.99,997.000000,,2013-04-01 22:32:00,
2013-04-01 13:02:00,64.0,50.0,-100.00,NNW,333,5.0,15.0,61,0.00,,,0.00,1260.000000,,2013-04-01 23:02:00,
2013-04-01 13:12:00,64.0,50.0,-100.00,NNW,333,5.0,15.0,61,0.00,,,0.00,1260.000000,,2013-04-01 23:12:00,
2013-04-01 13:22:00,64.0,50.0,-100.00,NNW,333,5.0,15.0,61,0.00,,,0.00,1260.000000,,2013-04-01 23:22:00,
2013-04-01 13:32:00,64.0,50.0,-100.00,NNW,333,5.0,15.0,61,0.00,,,0.00,1260.000000,,2013-04-01 23:32:00,
2013-04-01 14:02:00,65.0,50.0,-100.00,NNW,330,6.0,14.0,58,0.00,,,0.00,1246.000000,,2013-04-02 00:02:00,
2013-04-01 14:12:00,65.0,50.0,-100.00,NNW,330,6.0,14.0,58,0.00,,,0.00,1246.000000,,2013-04-02 00:12:00,
2013-04-01 14:22:00,65.0,50.0,-100.00,NNW,330,6.0,14.0,58,0.00,,,0.00,1246.000000,,2013-04-02 00:22:00,
2013-04-01 14:32:00,65.0,50.0,-100.00,NNW,330,6.0,14.0,58,0.00,,,0.00,1246.000000,,2013-04-02 00:32:00,
2013-04-01 15:02:00,61.0,50.0,-100.00,NW,325,4.0,17.0,66,0.00,,,0.00,902.000000,,2013-04-02 01:02:00,
2013-04-01 15:12:00,61.0,50.0,-100.00,NW,325,4.0,17.0,66,0.00,,,0.00,902.000000,,2013-04-02 01:12:00,
2013-04-01 15:22:00,61.0,50.0,-100.00,NW,325,4.0,17.0,66,0.00,,,0.00,902.000000,,2013-04-02 01:22:00,
2013-04-01 15:32:00,61.0,50.0,-100.00,NW,325,4.0,17.0,66,0.00,,,0.00,902.000000,,2013-04-02 01:32:00,
2013-04-01 16:02:00,60.0,53.0,-100.00,NNW,338,7.0,12.0,78,0.01,,,0.01,573.000000,,2013-04-02 02:02:00,
2013-04-01 16:12:00,60.0,53.0,-100.00,NNW,338,7.0,12.0,78,0.01,,,0.01,573.000000,,2013-04-02 02:12:00,
2013-04-01 16:22:00,60.0,53.0,-100.00,NNW,338,7.0,12.0,78,0.01,,,0.01,573.000000,,2013-04-02 02:22:00,
2013-04-01 16:32:00,60.0,53.0,-100.00,NNW,338,7.0,12.0,78,0.01,,,0.01,573.000000,,2013-04-02 02:32:00,
2013-04-01 17:02:00,59.0,52.0,-100.00,NNW,347,6.0,20.0,78,0.00,,,0.01,464.000000,,2013-04-02 03:02:00,
2013-04-01 17:12:00,59.0,52.0,-100.00,NNW,347,6.0,20.0,78,0.00,,,0.01,464.000000,,2013-04-02 03:12:00,
2013-04-01 17:22:00,59.0,52.0,-100.00,NNW,347,6.0,20.0,78,0.00,,,0.01,464.000000,,2013-04-02 03:22:00,
2013-04-01 17:33:00,59.0,52.0,-100.00,NNW,347,6.0,20.0,78,0.00,,,0.01,464.000000,,2013-04-02 03:33:00,
2013-04-01 18:02:00,58.0,52.0,-100.00,NNW,341,6.0,16.0,81,0.00,,,0.01,343.000000,,2013-04-02 04:02:00,
2013-04-01 18:13:00,58.0,52.0,-100.00,NNW,341,6.0,16.0,81,0.00,,,0.01,343.000000,,2013-04-02 04:13:00,
2013-04-01 18:22:00,58.0,52.0,-100.00,NNW,341,6.0,16.0,81,0.00,,,0.01,343.000000,,2013-04-02 04:22:00,
2013-04-01 18:32:00,58.0,52.0,-100.00,NNW,341,6.0,16.0,81,0.00,,,0.01,343.000000,,2013-04-02 04:32:00,
2013-04-01 19:02:00,55.0,51.0,-100.00,North,354,8.0,16.0,87,0.00,,,0.01,63.000000,,2013-04-02 05:02:00,
2013-04-01 19:12:00,55.0,51.0,-100.00,North,354,8.0,16.0,87,0.00,,,0.01,63.000000,,2013-04-02 05:12:00,
2013-04-01 19:22:00,55.0,51.0,-100.00,North,354,8.0,16.0,87,0.00,,,0.01,63.000000,,2013-04-02 05:22:00,
2013-04-01 19:32:00,55.0,51.0,-100.00,North,354,8.0,16.0,87,0.00,,,0.01,63.000000,,2013-04-02 05:32:00,
2013-04-01 20:02:00,54.0,51.0,-100.00,North,349,9.0,18.0,89,0.01,,,0.02,1.000000,,2013-04-02 06:02:00,
2013-04-01 20:12:00,54.0,51.0,-100.00,North,349,9.0,18.0,89,0.01,,,0.02,1.000000,,2013-04-02 06:12:00,
2013-04-01 20:22:00,54.0,51.0,-100.00,North,349,9.0,18.0,89,0.01,,,0.02,1.000000,,2013-04-02 06:22:00,
2013-04-01 20:31:00,54.0,51.0,-100.00,North,349,9.0,18.0,89,0.01,,,0.02,1.000000,,2013-04-02 06:31:00,
2013-04-01 21:02:00,56.0,52.0,-100.00,North,350,7.0,18.0,88,0.00,,,0.02,0.000000,,2013-04-02 07:02:00,
2013-04-01 21:12:00,56.0,52.0,-100.00,North,350,7.0,18.0,88,0.00,,,0.02,0.000000,,2013-04-02 07:12:00,
2013-04-01 21:22:00,56.0,52.0,-100.00,North,350,7.0,18.0,88,0.00,,,0.02,0.000000,,2013-04-02 07:22:00,
2013-04-01 21:31:00,56.0,52.0,-100.00,North,350,7.0,18.0,88,0.00,,,0.02,0.000000,,2013-04-02 07:31:00,
2013-04-01 22:02:00,54.0,50.0,-100.00,NNW,345,11.0,18.0,85,0.00,,,0.02,0.000000,,2013-04-02 08:02:00,
2013-04-01 22:12:00,54.0,50.0,-100.00,NNW,345,11.0,18.0,85,0.00,,,0.02,0.000000,,2013-04-02 08:12:00,
2013-04-01 22:22:00,54.0,50.0,-100.00,NNW,345,11.0,18.0,85,0.00,,,0.02,0.000000,,2013-04-02 08:22:00,
2013-04-01 22:31:00,54.0,50.0,-100.00,NNW,345,11.0,18.0,85,0.00,,,0.02,0.000000,,2013-04-02 08:31:00,
2013-04-01 23:02:00,56.0,51.0,-100.00,North,2,8.0,21.0,84,0.00,,,0.02,0.000000,,2013-04-02 09:02:00,
2013-04-01 23:12:00,56.0,51.0,-100.00,North,2,8.0,21.0,84,0.00,,,0.02,0.000000,,2013-04-02 09:12:00,
2013-04-01 23:22:00,56.0,51.0,-100.00,North,2,8.0,21.0,84,0.00,,,0.02,0.000000,,2013-04-02 09:22:00,
2013-04-01 23:32:00,56.0,51.0,-100.00,North,2,8.0,21.0,84,0.00,,,0.02,0.000000,,2013-04-02 09:32:00,